sat.trackr.live / text

‹ back to catalog

STARLINK-30977

NORAD 58459 · 2023-183Y

PAYLOAD ACTIVE UNKNOWN

§ Identity

Operator
Country
US
Launch date
2023-11-28
Launch site
AFETR
Launch vehicle
Mass (kg)
RCS (m²)

Purposes: comms

External: N2YO · Heavens-Above · Gunter

§ Orbital elements

Epoch: 2026-05-24T21:14:05.697888Z

Period
94.27 min
Inclination
43.0012°
Eccentricity
0.0001347
Mean motion
15.27581560 rev/d
Perigee alt
482.1 km
Apogee alt
484.0 km
Semi-major
6,861.2 km
B*
-4.3665e-5
RAAN
331.6232°
Arg perigee
266.7765°
Mean anomaly
93.2933°
Rev number
13,838

§ Raw data

STARLINK-309771 58459U 23183Y   26144.88478817 -.00001464  00000+0 -43665-4 0  99902 58459  43.0012 331.6232 0001347 266.7765  93.2933 15.27581560138389

JSON: /api/v1/satellites/58459 · /tle

For live sub-satellite position, see the globe view (requires WebGL).

§ Visibility from observer

Set your observer location to see the next 7 days of passes ≥ 10°. The values pass through the URL so the page stays shareable.

No JS? Fill the form by hand. The geolocation button needs JavaScript.